Location: Battery Park City
(40.7115°N, 74.0163°W)
Time: 14:14:50
(UTC+00:00)

Cosmos 1812 - Pass Details

Date: 08 December 2019
Orbit: 516 x 523 km, 82.5° (Epoch: 19 January)

Event Time Altitude Azimuth Distance (km) Brightness Sun altitude
Rises 22:45:11 0° 200° (SSW) 2,637 6.9 -14.1°
Reaches altitude 10° 22:47:22 10° 206° (SSW) 1,754 6.0 -14.5°
Maximum altitude 22:51:04 46° 280° (W) 711 3.8 -15.2°
Drops below altitude 10° 22:54:50 10° 355° (N) 1,770 5.3 -15.8°
Sets 22:57:03 0° 2° (N) 2,663 6.1 -16.2°
